Regional Weather Roundup
Issued by NWS

Home | Current Version | Previous Version | Text Only | Print | Product List | Glossary On
Versions: 1 2 3 4 5 6 7 8 9 10 11 12 13 14 15 16 17 18 19 20 21 22 23 24 25 26 27 28 29 30 31 32 33 34 35 36 37 38 39 40 41 42 43 44 45 46 47 48 49 50
000
ASUS43 KDTX 201201
RWRMI
MICHIGAN HOURLY REGIONAL WEATHER ROUNDUP
NATIONAL WEATHER SERVICE DETROIT/PONTIAC MI
800 AM EDT SAT SEP 20 2014

NOTE: "FAIR" INDICATES FEW OR NO CLOUDS BELOW 12,000 FEET WITH NO
SIGNIFICANT WEATHER AND/OR OBSTRUCTION TO VISIBILITY.

MIZ047>049-052>055-059>063-066>070-074>076-081>083-201300-
SOUTHEAST LOWER MICHIGAN

CITY           SKY/WX    TMP DP  RH WIND       PRES   REMARKS
ADRIAN         PTCLDY    51  47  86 W3        30.01F
6HR MIN TEMP:  49; 6HR MAX TEMP:  53;

ALMA           CLOUDY    57  51  80 SW7       29.89S
ANN ARBOR      PTCLDY    50  46  86 SW5       29.99F
BAD AXE        MOCLDY    57  51  80 S10       29.91S
6HR MIN TEMP:  54; 6HR MAX TEMP:  57;

CARO           MOCLDY    61  51  70 SW12G17   29.90S
DETROIT CITY   PTCLDY    61  49  64 SW12      29.99F
6HR MIN TEMP:  55; 6HR MAX TEMP:  62;

DETROIT        MOCLDY    53  48  83 S8        30.00F
6HR MIN TEMP:  51; 6HR MAX TEMP:  54;

FLINT          MOCLDY    61  51  70 SW12G22   29.94F
6HR MIN TEMP:  58; 6HR MAX TEMP:  63; 6HR PCP:  0.33;

GROSSE ILE     CLEAR     57  50  77 S8        30.00F
HILLSDALE      PTCLDY    58  53  84 S6        29.99F
HOWELL         MOCLDY    56  50  79 S6        29.96S
6HR MIN TEMP:  54; 6HR MAX TEMP:  57;


CITY           SKY/WX    TMP DP  RH WIND       PRES   REMARKS
JACKSON        PTCLDY    59  51  75 SW9       29.97F
6HR MIN TEMP:  53; 6HR MAX TEMP:  60;

LAMBERTVILLE   PTCLDY    55  50  82 S6        30.01F
LANSING        CLOUDY    61  52  72 SW15      29.94S THUNDER
6HR MIN TEMP:  55; 6HR MAX TEMP:  61; 6HR PCP:  0.02;

LAPEER         FAIR      60  49  68 SW8       29.95S
MASON          MOCLDY    56  50  80 S3        29.95F
MONROE         PTCLDY    55  50  82 S5        29.99F
MT. CLEMENS    MOCLDY    59  53  80 SW8       29.96F
6HR MIN TEMP:  52; 6HR MAX TEMP:  59;

PONTIAC        MOCLDY    59  49  69 SW7       29.96F
6HR MIN TEMP:  56; 6HR MAX TEMP:  60;

PORT HOPE        N/A     60  49  66 VRB7      29.87S
6HR MIN TEMP:  56; 6HR MAX TEMP:  60;

PORT HURON     PTCLDY    57  54  88 SW5       29.97S
TRI CITIES     CLOUDY    65  51  60 SW15      29.88F
6HR MIN TEMP:  55; 6HR MAX TEMP:  65;

TROY           PTCLDY    56  48  72 SW7       29.99F
SAGINAW HB     MOCLDY    61  50  67 S14       29.89S
$$
MIZ043>046-050>051-056>058-064>065-071>073-077>080-201300-
SOUTHWEST LOWER MICHIGAN

CITY           SKY/WX    TMP DP  RH WIND       PRES   REMARKS
BATTLE CREEK   MOCLDY    59  51  75 SW14      29.95F
6HR MIN TEMP:  55; 6HR MAX TEMP:  59;

BENTON HARBOR  MOCLDY    60  52  74 S7        29.94R
6HR MIN TEMP:  58; 6HR MAX TEMP:  60;

BIG RAPIDS     CLOUDY    63  58  83 SW8       29.83F
6HR MIN TEMP:  58; 6HR MAX TEMP:  63;

COLDWATER      MOCLDY    60  53  77 SW8       29.98S
6HR MIN TEMP:  56; 6HR MAX TEMP:  61;

FREMONT        PTSUNNY   63  56  77 SW14      29.84F
HOLLAND        CLOUDY    64  58  80 SW15      29.90F
6HR MIN TEMP:  59; 6HR MAX TEMP:  67; 6HR PCP:  0.06;

GRAND RAPIDS   CLOUDY    63  54  72 SW15      29.90F
6HR MIN TEMP:  58; 6HR MAX TEMP:  63; 6HR PCP:  0.02;

IONIA          LGT RAIN  60  55  82 SW14      29.90S
KALAMAZOO      MOCLDY    58  51  78 S9        29.95F
6HR MIN TEMP:  55; 6HR MAX TEMP:  58;

LUDINGTON      CLOUDY    63  58  82 SW20G25     N/A
6HR MIN TEMP:  62; 6HR MAX TEMP:  67;

MARSHALL       MOCLDY    57  51  78 S7        29.96S
MOUNT PLEASANT CLOUDY    59  51  76 S6        29.86S
6HR MIN TEMP:  53; 6HR MAX TEMP:  59;

MUSKEGON       CLOUDY    65  57  75 S21G26    29.86F
6HR MIN TEMP:  64; 6HR MAX TEMP:  66; 6HR PCP: TRACE;

SOUTH HAVEN    CLOUDY    64  54  71 SW9       29.92F
$$
MIZ016>042-201300-
NORTHERN LOWER MICHIGAN

CITY           SKY/WX    TMP DP  RH WIND       PRES   REMARKS
ALPENA         TSTM      61  52  72 SW10      29.78S
6HR MIN TEMP:  59; 6HR MAX TEMP:  62; 6HR PCP:  0.01;

BEAVER ISLAND  RAIN      62  61  96 SW15G22   29.69F
6HR MIN TEMP:  60; 6HR MAX TEMP:  65;

BELLAIRE       LGT RAIN  61  58  91 S3        29.76F
6HR MIN TEMP:  60; 6HR MAX TEMP:  66;

CADILLAC       CLOUDY    59  57  91 SW14      29.80F
CHARLEVOIX     HVY RAIN  61  61  98 S10G20    29.77R
6HR MIN TEMP:  61; 6HR MAX TEMP:  66;

FRANKFORT      CLOUDY    64  57  79 S9G21     29.75F
GAYLORD        LGT RAIN  57  55  93 SW9       29.80R
6HR MIN TEMP:  56; 6HR MAX TEMP:  60; 6HR PCP:  0.22;

GRAYLING       CLOUDY    56  55  95 CALM      29.81F
HARBOR SPRINGS RAIN      60  58  94 S5        29.74F
HOUGHTON LAKE  CLOUDY    60  52  74 S7        29.84R
6HR MIN TEMP:  56; 6HR MAX TEMP:  60;

MANISTEE       CLOUDY    63  55  77 S8G20     29.76F
OSCODA         CLOUDY    59  49  70 SW14      29.84R
PELLSTON       RAIN      60  58  92 S8        29.73F FOG
6HR MIN TEMP:  60; 6HR MAX TEMP:  66; 6HR PCP:  0.35;

ROGERS CITY    RAIN      58  57  96 SW12G23   29.77R
TRAVERSE CITY  CLOUDY    62  58  86 VRB5      29.74F
6HR MIN TEMP:  62; 6HR MAX TEMP:  67; 6HR PCP:  0.31;

$$
MIZ007>008-015-201300-
EASTERN UPPER MICHIGAN

CITY           SKY/WX    TMP DP  RH WIND       PRES   REMARKS
KINROSS        CLOUDY    61  59  94 SW8G17    29.70R
6HR MIN TEMP:  57; 6HR MAX TEMP:  63; 6HR PCP:  0.10;

MACKINAC ISLAN RAIN      60  59  97 SW12G18   29.73S
6HR MIN TEMP:  59; 6HR MAX TEMP:  65; 6HR PCP:  0.39;

NEWBERRY       CLOUDY    59  55  85 S13       29.66F
S. S. MARIE    CLOUDY    57  55  93 E3        29.69F
6HR MIN TEMP:  56; 6HR MAX TEMP:  58; 6HR PCP:  0.08;

$$
MIZ004>006-011>014-085-201300-
CENTRAL UPPER MICHIGAN

CITY           SKY/WX    TMP DP  RH WIND       PRES   REMARKS
MANISTIQUE     CLOUDY    57  56  95 S12       29.66F FOG
ESCANABA       CLOUDY    61  55  82 S5        29.65S
6HR MIN TEMP:  59; 6HR MAX TEMP:  61;

MENOMINEE      CLOUDY    63  61  94 W6        29.66F
6HR MIN TEMP:  61; 6HR MAX TEMP:  64; 6HR PCP:  0.15;

SAWYER-GWINN   CLOUDY    59  55  88 S9        29.63F
$$
MIZ001>003-009>011-084-201300-
WESTERN UPPER MICHIGAN

CITY           SKY/WX    TMP DP  RH WIND       PRES   REMARKS
IRON MOUNTAIN  CLOUDY    66  60  81 SW8       29.64R
6HR MIN TEMP:  61; 6HR MAX TEMP:  66;

HOUGHTON       CLOUDY    62  59  90 W5        29.55F
6HR MIN TEMP:  61; 6HR MAX TEMP:  62;

COPPER HARBOR    N/A     60  57  89 CALM      29.54S
6HR MIN TEMP:  55; 6HR MAX TEMP:  63;

IRONWOOD       CLOUDY    66  64  94 W17       29.59R
6HR MIN TEMP:  64; 6HR MAX TEMP:  66;

$$

ABBREVIATIONS USED IN REMARKS
   TC - TEMPERATURE IN CELSIUS
  WCI - WIND CHILL INDEX
   HX - HEAT INDEX
  VSB - VISIBILITY



USA.gov is the U.S. government's official web portal to all federal, state and local government web resources and services.